This demonstration page uses our WeatherBlox Daily Observations layout. Learn more.

Left ArrowRight Arrow

39.12711, -84.51439

Hourly Observations for September 14, 2018

Temp ( °F °C ) Dew Point ( °F °C ) Humidity (%) Winds ( mph kmh ) Pressure ( in mb ) Visibility ( mi km ) Precip ( " mm )
12:53 am 00:53 Clear with Mist and Fog 67 19.4 67 19.4 100 100 Calm 30.09 1019 5 8 0.00 0.00
1:53 am 01:53 Clear with Mist and Fog 66 18.9 66 18.9 100 100 Calm 30.10 1019 5 8 0.00 0.00
2:23 am 02:23 Clear with Mist and Fog 65 18.3 65 18.3 100 100 Calm 30.09 1019 3 4 0.00 0.00
2:32 am 02:32 Clear with Mist and Fog 66 18.9 66 18.9 100 100 Calm 30.09 1019 4 6 0.00 0.00
2:53 am 02:53 Clear with Mist and Fog 65 18.3 65 18.3 100 100 Calm 30.09 1019 4 6 0.00 0.00
3:53 am 03:53 Clear with Mist and Fog 65 18.3 65 18.3 100 100 Calm 30.10 1019 5 8 0.00 0.00
4:53 am 04:53 Clear with Mist and Fog 64 17.8 64 17.8 100 100 Calm 30.10 1019 5 8 0.00 0.00
5:21 am 05:21 Clear with Mist and Fog 64 17.8 64 17.8 100 100 Calm 30.09 1019 2 3 0.00 0.00
5:28 am 05:28 Clear with Mist and Fog 64 17.8 64 17.8 100 100 Calm 30.09 1019 3 5 0.00 0.00
5:53 am 05:53 Clear with Mist and Fog 63 17.2 63 17.2 100 100 Calm 30.11 1020 3 5 0.00 0.00
6:01 am 06:01 Clear with Mist and Fog 64 17.8 64 17.8 100 100 Calm 30.09 1019 3 4 0.00 0.00
6:08 am 06:08 Clear with Mist and Fog 64 17.8 64 17.8 100 100 Calm 30.09 1019 6 10 0.00 0.00
6:53 am 06:53 Clear 65 18.3 65 18.3 100 100 Calm 30.11 1020 7 11 0.00 0.00
7:53 am 07:53 Sunny with Mist and Fog 65 18.3 65 18.3 100 100 Calm 30.12 1020 5 8 0.00 0.00
8:53 am 08:53 Sunny 70 21.1 68 20 93 93 Calm 30.13 1020 7 11 0.00 0.00
9:53 am 09:53 Sunny 75 23.9 70 21.1 84 84 Calm 30.12 1020 9 14 0.00 0.00
10:53 am 10:53 Sunny 79 26.1 72 22.2 79 79 Calm 30.11 1020 10 16 0.00 0.00
11:53 am 11:53 Sunny 82 27.8 73 22.8 74 74 VRB 3 6 30.09 1019 10 16 0.00 0.00
12:53 pm 12:53 Sunny 85 29.4 73 22.8 68 68 Calm 30.09 1019 10 16 0.00 0.00
1:53 pm 13:53 Sunny 87 30.6 73 22.8 63 63 VRB 3 6 30.08 1019 10 16 0.00 0.00
2:53 pm 14:53 Partly Cloudy 89 31.7 73 22.8 59 59 N 7 11 30.06 1018 10 16 0.00 0.00
3:53 pm 15:53 Partly Cloudy 89 31.7 71 21.7 55 55 NE 5 7 30.04 1017 10 16 0.00 0.00
4:53 pm 16:53 Partly Cloudy 89 31.7 72 22.2 57 57 E 6 9 30.04 1017 10 16 0.00 0.00
5:53 pm 17:53 Mostly Sunny 89 31.7 73 22.8 59 59 NNE 6 9 30.03 1017 10 16 0.00 0.00
6:53 pm 18:53 Mostly Sunny 81 27.2 74 23.3 79 79 E 3 6 30.04 1017 10 16 0.00 0.00
7:53 pm 19:53 Clear 77 25 74 23.3 90 90 Calm 30.03 1017 10 16 0.00 0.00
8:53 pm 20:53 Clear 75 23.9 74 23.3 96 96 Calm 30.04 1017 10 16 0.00 0.00
9:53 pm 21:53 Clear 74 23.3 73 22.8 97 97 Calm 30.05 1018 10 16 0.00 0.00
10:53 pm 22:53 Clear 73 22.8 73 22.8 100 100 Calm 30.06 1018 10 16 0.00 0.00
11:53 pm 23:53 Mostly Cloudy 75 23.9 72 22.2 90 90 NNE 5 7 30.06 1018 10 16 0.00 0.00

Powered by AerisWeather